| time (UTC) | temp F | wind direction | speed MPH | gust MPH | rain 1hr in | rain 24hr in | rain mn in | humidity % | barometer mb |
| 20260507070024 | 44 | 249 | 2.0 | 2.0 | 0.00 | 0.00 | 0.00 | 81 | 1034.8 |
| 20260507065523 | 45 | 247 | 2.0 | 2.0 | 0.00 | 0.00 | 0.00 | 81 | 1034.3 |
| 20260507065043 | 45 | 336 | 2.0 | 3.0 | 0.00 | 0.01 | 0.00 | 80 | 1033.4 |
| 20260507064522 | 45 | 257 | 2.0 | 2.0 | 0.00 | 0.01 | 0.00 | 79 | 1032.3 |
| 20260507064020 | 45 | 342 | 2.0 | 3.0 | 0.00 | 0.01 | 0.00 | 77 | 1031.3 |
| 20260507063519 | 45 | 10 | 1.0 | 3.0 | 0.00 | 0.02 | 0.00 | 77 | 1031.2 |
| 20260507063024 | 45 | 17 | 3.0 | 3.0 | 0.00 | 0.02 | 0.00 | 77 | 1031.2 |
| 20260507062523 | 45 | 15 | 2.0 | 3.0 | 0.00 | 0.02 | 0.00 | 76 | 1031.3 |
| 20260507062026 | 45 | 14 | 2.0 | 3.0 | 0.00 | 0.02 | 0.00 | 75 | 1031.5 |
| 20260507061524 | 45 | 17 | 3.0 | 3.0 | 0.00 | 0.02 | 0.00 | 75 | 1031.4 |
| 20260507061023 | 45 | 19 | 3.0 | 3.0 | 0.00 | 0.02 | 0.00 | 76 | 1031.4 |
| 20260507060523 | 46 | 16 | 3.0 | 3.0 | 0.00 | 0.03 | 0.00 | 75 | 1031.5 |
| 20260507060045 | 46 | 19 | 3.0 | 3.0 | 0.00 | 0.03 | 0.00 | 75 | 1031.9 |
| 20260507055521 | 46 | 15 | 3.0 | 3.0 | 0.00 | 0.03 | 0.00 | 75 | 1031.6 |
| 20260507055023 | 46 | 13 | 2.0 | 3.0 | 0.00 | 0.04 | 0.00 | 75 | 1031.7 |
| 20260507054520 | 46 | 15 | 2.0 | 3.0 | 0.00 | 0.04 | 0.00 | 74 | 1032.4 |
| 20260507054043 | 46 | 19 | 2.0 | 3.0 | 0.00 | 0.04 | 0.00 | 73 | 1033.2 |
| 20260507053522 | 47 | 18 | 3.0 | 3.0 | 0.00 | 0.04 | 0.00 | 72 | 1034.7 |
| 20260507053027 | 47 | 18 | 3.0 | 3.0 | 0.00 | 0.04 | 0.00 | 72 | 1035.3 |
| 20260507052524 | 47 | 21 | 2.0 | 3.0 | 0.00 | 0.04 | 0.00 | 71 | 1036.7 |
| 20260507052025 | 47 | 19 | 2.0 | 3.0 | 0.00 | 0.04 | 0.00 | 70 | 1038.7 |
| 20260507051521 | 47 | 20 | 3.0 | 3.0 | 0.00 | 0.04 | 0.00 | 70 | 1038.2 |
| 20260507051022 | 47 | 21 | 3.0 | 3.0 | 0.00 | 0.04 | 0.00 | 70 | 1038.0 |
| 20260507050521 | 47 | 18 | 1.0 | 3.0 | 0.00 | 0.04 | 0.00 | 71 | 1037.2 |
| 20260507050021 | 47 | 219 | 0.0 | 2.0 | 0.00 | 0.04 | 0.00 | 70 | 1037.7 |
| 20260507045522 | 47 | 15 | 2.0 | 3.0 | 0.00 | 0.04 | 0.04 | 70 | 1037.9 |
| 20260507045023 | 47 | 16 | 2.0 | 3.0 | 0.00 | 0.05 | 0.04 | 70 | 1037.1 |
| 20260507044521 | 47 | 17 | 2.0 | 3.0 | 0.00 | 0.05 | 0.04 | 72 | 1034.9 |
| 20260507044042 | 47 | 19 | 2.0 | 3.0 | 0.00 | 0.05 | 0.04 | 71 | 1036.7 |
| 20260507043522 | 47 | 15 | 3.0 | 3.0 | 0.00 | 0.05 | 0.04 | 71 | 1036.1 |
| 20260507043022 | 48 | 9 | 1.0 | 3.0 | 0.00 | 0.06 | 0.04 | 72 | 1034.3 |
| 20260507042521 | 48 | 18 | 2.0 | 3.0 | 0.00 | 0.06 | 0.04 | 72 | 1034.9 |
| 20260507042024 | 48 | 18 | 2.0 | 3.0 | 0.00 | 0.06 | 0.04 | 71 | 1037.1 |
| 20260507041522 | 48 | 18 | 2.0 | 3.0 | 0.00 | 0.06 | 0.04 | 70 | 1038.1 |
| 20260507041023 | 48 | 17 | 2.0 | 3.0 | 0.00 | 0.06 | 0.04 | 70 | 1038.5 |
| 20260507040542 | 48 | 12 | 1.0 | 3.0 | 0.00 | 0.06 | 0.04 | 71 | 1037.1 |
| 20260507040022 | 48 | 19 | 2.0 | 3.0 | 0.00 | 0.06 | 0.04 | 70 | 1038.4 |
| 20260507035523 | 48 | 9 | 1.0 | 3.0 | 0.00 | 0.06 | 0.04 | 70 | 1038.5 |
| 20260507035025 | 49 | 11 | 2.0 | 3.0 | 0.00 | 0.06 | 0.04 | 70 | 1039.1 |
| 20260507034520 | 49 | 16 | 2.0 | 3.0 | 0.00 | 0.06 | 0.04 | 68 | 1040.7 |
| 20260507034044 | 49 | 319 | 1.0 | 3.0 | 0.00 | 0.06 | 0.04 | 68 | 1040.7 |
| 20260507033523 | 49 | 337 | 1.0 | 3.0 | 0.00 | 0.06 | 0.04 | 68 | 1040.7 |
| 20260507033025 | 49 | 17 | 2.0 | 3.0 | 0.00 | 0.06 | 0.04 | 67 | 1041.4 |
| 20260507032523 | 49 | 246 | 2.0 | 3.0 | 0.00 | 0.06 | 0.04 | 67 | 1041.4 |
| 20260507032025 | 49 | 228 | 1.0 | 3.0 | 0.00 | 0.06 | 0.04 | 68 | 1041.1 |
| 20260507031524 | 50 | 308 | 2.0 | 3.0 | 0.00 | 0.07 | 0.04 | 67 | 1041.3 |
| 20260507031020 | 50 | 18 | 3.0 | 4.0 | 0.00 | 0.07 | 0.04 | 67 | 1041.3 |
| 20260507030520 | 50 | 349 | 3.0 | 3.0 | 0.00 | 0.07 | 0.04 | 66 | 1041.5 |
| 20260507030021 | 50 | 245 | 3.0 | 3.0 | 0.00 | 0.07 | 0.04 | 66 | 1041.6 |
| 20260507025520 | 50 | 234 | 3.0 | 3.0 | 0.00 | 0.07 | 0.04 | 66 | 1041.4 |
| 20260507025024 | 51 | 248 | 3.0 | 4.0 | 0.00 | 0.07 | 0.04 | 65 | 1041.0 |
| 20260507024524 | 51 | 336 | 3.0 | 4.0 | 0.00 | 0.07 | 0.04 | 65 | 1041.3 |
| 20260507024025 | 51 | 262 | 3.0 | 4.0 | 0.00 | 0.07 | 0.04 | 65 | 1041.3 |
| 20260507023524 | 51 | 347 | 3.0 | 4.0 | 0.00 | 0.07 | 0.04 | 64 | 1041.0 |
| 20260507023025 | 51 | 251 | 3.0 | 4.0 | 0.00 | 0.07 | 0.04 | 64 | 1040.3 |
| 20260507022520 | 51 | 260 | 3.0 | 4.0 | 0.00 | 0.07 | 0.04 | 64 | 1039.9 |
| 20260507022022 | 52 | 288 | 3.0 | 4.0 | 0.00 | 0.07 | 0.04 | 63 | 1039.3 |
| 20260507021521 | 52 | 252 | 3.0 | 4.0 | 0.00 | 0.07 | 0.04 | 64 | 1040.6 |
| 20260507021021 | 52 | 337 | 3.0 | 4.0 | 0.00 | 0.07 | 0.04 | 63 | 1040.2 |
| 20260507020542 | 52 | 338 | 4.0 | 4.0 | 0.00 | 0.07 | 0.04 | 63 | 1040.3 |
| 20260507020043 | 52 | 239 | 3.0 | 4.0 | 0.00 | 0.08 | 0.04 | 63 | 1040.0 |
| 20260507015521 | 52 | 333 | 3.0 | 4.0 | 0.00 | 0.08 | 0.04 | 62 | 1038.1 |
| 20260507015023 | 53 | 241 | 3.0 | 4.0 | 0.00 | 0.08 | 0.04 | 62 | 1038.5 |
| 20260507014601 | 53 | 243 | 3.0 | 4.0 | 0.00 | 0.09 | 0.04 | 62 | 1039.1 |
| 20260507014022 | 53 | 347 | 4.0 | 4.0 | 0.00 | 0.10 | 0.04 | 61 | 1035.9 |
| 20260507013543 | 54 | 245 | 3.0 | 4.0 | 0.00 | 0.10 | 0.04 | 60 | 1034.7 |
| 20260507013022 | 54 | 242 | 3.0 | 4.0 | 0.00 | 0.11 | 0.04 | 59 | 1032.4 |
| 20260507012522 | 55 | 231 | 1.0 | 3.0 | 0.00 | 0.11 | 0.04 | 58 | 1029.9 |
| 20260507012022 | 55 | 4 | 2.0 | 4.0 | 0.00 | 0.12 | 0.04 | 57 | 1028.7 |
| 20260507011522 | 55 | 317 | 1.0 | 4.0 | 0.00 | 0.12 | 0.04 | 57 | 1028.0 |
| 20260507011022 | 56 | 25 | 3.0 | 4.0 | 0.00 | 0.12 | 0.04 | 54 | 1022.8 |
| 20260507010522 | 56 | 26 | 3.0 | 4.0 | 0.00 | 0.13 | 0.04 | 53 | 1021.3 |
| 20260507010023 | 56 | 26 | 4.0 | 5.0 | 0.00 | 0.15 | 0.04 | 53 | 1021.7 |
| 20260507005523 | 57 | 25 | 3.0 | 5.0 | 0.00 | 0.16 | 0.04 | 51 | 1019.9 |
| 20260507005044 | 57 | 23 | 4.0 | 6.0 | 0.00 | 0.17 | 0.04 | 51 | 1019.4 |
| 20260507004543 | 57 | 23 | 4.0 | 6.0 | 0.00 | 0.19 | 0.04 | 51 | 1018.5 |
| 20260507004023 | 57 | 11 | 4.0 | 6.0 | 0.00 | 0.19 | 0.04 | 51 | 1019.2 |
| 20260507003522 | 57 | 17 | 5.0 | 5.0 | 0.00 | 0.19 | 0.04 | 50 | 1018.5 |
| 20260507003045 | 58 | 344 | 4.0 | 6.0 | 0.00 | 0.21 | 0.04 | 49 | 1017.8 |
| 20260507002523 | 58 | 6 | 5.0 | 7.0 | 0.00 | 0.21 | 0.04 | 49 | 1017.3 |
| 20260507002024 | 58 | 319 | 5.0 | 7.0 | 0.00 | 0.21 | 0.04 | 48 | 1017.0 |
| 20260507001521 | 58 | 351 | 6.0 | 7.0 | 0.00 | 0.21 | 0.04 | 48 | 1016.7 |
| 20260507001021 | 58 | 329 | 6.0 | 7.0 | 0.00 | 0.21 | 0.04 | 48 | 1016.0 |
| 20260507000521 | 58 | 232 | 4.0 | 7.0 | 0.00 | 0.21 | 0.04 | 47 | 1016.2 |
| 20260507000023 | 59 | 254 | 5.0 | 6.0 | 0.00 | 0.21 | 0.04 | 48 | 1016.5 |
| 20260506235523 | 59 | 346 | 6.0 | 7.0 | 0.00 | 0.21 | 0.04 | 47 | 1016.0 |
| 20260506235045 | 59 | 3 | 6.0 | 8.0 | 0.00 | 0.21 | 0.04 | 46 | 1015.3 |
| 20260506234524 | 60 | 10 | 6.0 | 9.0 | 0.00 | 0.21 | 0.04 | 45 | 1014.6 |
| 20260506234024 | 60 | 13 | 7.0 | 9.0 | 0.00 | 0.22 | 0.04 | 46 | 1015.1 |
| 20260506233521 | 60 | 23 | 8.0 | 11.0 | 0.00 | 0.22 | 0.04 | 46 | 1015.3 |
| 20260506233021 | 60 | 21 | 8.0 | 10.0 | 0.00 | 0.22 | 0.04 | 45 | 1014.7 |
| 20260506232522 | 60 | 21 | 8.0 | 11.0 | 0.00 | 0.22 | 0.04 | 45 | 1014.8 |
| 20260506232042 | 60 | 22 | 8.0 | 11.0 | 0.00 | 0.25 | 0.04 | 45 | 1014.8 |
| 20260506231521 | 60 | 25 | 7.0 | 11.0 | 0.00 | 0.28 | 0.04 | 46 | 1015.0 |
| 20260506231021 | 60 | 25 | 7.0 | 10.0 | 0.00 | 0.29 | 0.04 | 45 | 1014.9 |
| 20260506230603 | 60 | 256 | 7.0 | 10.0 | 0.00 | 0.30 | 0.04 | 45 | 1014.8 |
| 20260506230026 | 60 | 227 | 7.0 | 9.0 | 0.00 | 0.30 | 0.04 | 44 | 1014.3 |
| 20260506225523 | 60 | 224 | 6.0 | 9.0 | 0.00 | 0.30 | 0.04 | 44 | 1014.5 |
| 20260506225021 | 60 | 230 | 6.0 | 9.0 | 0.00 | 0.30 | 0.04 | 45 | 1014.9 |
| 20260506224521 | 60 | 321 | 6.0 | 10.0 | 0.00 | 0.30 | 0.04 | 46 | 1015.8 |
| 20260506224022 | 60 | 275 | 6.0 | 9.0 | 0.00 | 0.30 | 0.04 | 44 | 1014.7 |
| 20260506223524 | 61 | 251 | 5.0 | 10.0 | 0.00 | 0.30 | 0.04 | 45 | 1014.8 |
| 20260506223022 | 61 | 233 | 2.0 | 7.0 | 0.00 | 0.31 | 0.04 | 43 | 1014.4 |
| 20260506222522 | 61 | 219 | 1.0 | 2.0 | 0.00 | 0.31 | 0.04 | 44 | 1014.4 |
| 20260506222022 | 62 | 223 | 2.0 | 6.0 | 0.00 | 0.31 | 0.04 | 43 | 1014.2 |
| 20260506221523 | 62 | 228 | 2.0 | 7.0 | 0.00 | 0.31 | 0.04 | 45 | 1014.7 |
| 20260506221023 | 62 | 227 | 3.0 | 7.0 | 0.00 | 0.31 | 0.04 | 45 | 1015.0 |
| 20260506220520 | 62 | 231 | 5.0 | 9.0 | 0.00 | 0.31 | 0.04 | 44 | 1014.3 |
| 20260506220023 | 62 | 225 | 5.0 | 9.0 | 0.00 | 0.31 | 0.04 | 45 | 1014.9 |
| 20260506215523 | 62 | 223 | 3.0 | 6.0 | 0.00 | 0.31 | 0.04 | 44 | 1014.6 |
| 20260506215023 | 62 | 232 | 4.0 | 10.0 | 0.00 | 0.31 | 0.04 | 43 | 1014.6 |
| 20260506214522 | 62 | 306 | 7.0 | 11.0 | 0.00 | 0.31 | 0.04 | 44 | 1014.7 |
| 20260506214025 | 62 | 305 | 7.0 | 10.0 | 0.00 | 0.31 | 0.04 | 44 | 1014.6 |
| 20260506213523 | 62 | 273 | 7.0 | 10.0 | 0.00 | 0.31 | 0.04 | 43 | 1014.3 |
| 20260506213021 | 62 | 255 | 3.0 | 8.0 | 0.00 | 0.31 | 0.04 | 45 | 1014.8 |
| 20260506212524 | 62 | 271 | 6.0 | 9.0 | 0.00 | 0.31 | 0.04 | 44 | 1015.1 |
| 20260506212021 | 62 | 259 | 6.0 | 10.0 | 0.00 | 0.31 | 0.04 | 43 | 1014.3 |
| 20260506211522 | 62 | 260 | 8.0 | 12.0 | 0.00 | 0.31 | 0.04 | 43 | 1014.3 |
| 20260506211100 | 62 | 255 | 7.0 | 11.0 | 0.00 | 0.31 | 0.04 | 44 | 1014.7 |
| 20260506210520 | 62 | 247 | 2.0 | 10.0 | 0.00 | 0.31 | 0.04 | 45 | 1015.0 |
| 20260506210023 | 63 | 219 | 2.0 | 7.0 | 0.00 | 0.31 | 0.04 | 43 | 1014.6 |
| 20260506205604 | 63 | 218 | 2.0 | 7.0 | 0.00 | 0.31 | 0.04 | 45 | 1015.3 |
| 20260506205023 | 62 | 217 | 2.0 | 7.0 | 0.00 | 0.31 | 0.04 | 47 | 1016.0 |
| 20260506204524 | 62 | 215 | 2.0 | 8.0 | 0.00 | 0.32 | 0.04 | 47 | 1016.2 |
| 20260506204041 | 62 | 218 | 3.0 | 8.0 | 0.00 | 0.32 | 0.04 | 48 | 1016.8 |
| 20260506203520 | 61 | 266 | 5.0 | 11.0 | 0.00 | 0.32 | 0.04 | 45 | 1015.1 |
| 20260506203022 | 61 | 304 | 7.0 | 10.0 | 0.00 | 0.32 | 0.04 | 46 | 1015.7 |
| 20260506202522 | 62 | 347 | 9.0 | 14.0 | 0.00 | 0.32 | 0.04 | 44 | 1015.0 |
| 20260506202021 | 62 | 319 | 8.0 | 14.0 | 0.00 | 0.32 | 0.04 | 43 | 1014.7 |
| 20260506201521 | 62 | 9 | 8.0 | 10.0 | 0.00 | 0.32 | 0.04 | 43 | 1014.9 |
| 20260506201021 | 62 | 347 | 7.0 | 10.0 | 0.00 | 0.33 | 0.04 | 44 | 1015.0 |
| 20260506200521 | 62 | 215 | 3.0 | 8.0 | 0.00 | 0.33 | 0.04 | 45 | 1016.0 |
| 20260506200043 | 62 | 216 | 2.0 | 8.0 | 0.00 | 0.33 | 0.04 | 45 | 1016.0 |
| 20260506195521 | 62 | 219 | 2.0 | 8.0 | 0.00 | 0.33 | 0.04 | 44 | 1015.1 |
| 20260506195021 | 61 | 214 | 3.0 | 8.0 | 0.00 | 0.33 | 0.04 | 45 | 1016.2 |
| 20260506194603 | 61 | 214 | 3.0 | 8.0 | 0.00 | 0.33 | 0.04 | 46 | 1016.6 |
| 20260506194022 | 61 | 221 | 2.0 | 8.0 | 0.00 | 0.33 | 0.04 | 46 | 1016.4 |
| 20260506193543 | 62 | 242 | 6.0 | 10.0 | 0.00 | 0.33 | 0.04 | 44 | 1015.7 |
| 20260506193022 | 62 | 227 | 5.0 | 10.0 | 0.00 | 0.33 | 0.04 | 44 | 1016.2 |
| 20260506192524 | 61 | 277 | 6.0 | 10.0 | 0.00 | 0.33 | 0.04 | 43 | 1015.0 |
| 20260506192023 | 61 | 331 | 6.0 | 9.0 | 0.00 | 0.33 | 0.04 | 43 | 1015.0 |
| 20260506191522 | 61 | 345 | 7.0 | 11.0 | 0.00 | 0.33 | 0.04 | 43 | 1015.0 |
| 20260506191043 | 62 | 12 | 8.0 | 12.0 | 0.00 | 0.33 | 0.04 | 43 | 1014.9 |
| 20260506190523 | 62 | 14 | 9.0 | 11.0 | 0.00 | 0.33 | 0.04 | 44 | 1014.9 |
| 20260506190025 | 62 | 14 | 9.0 | 12.0 | 0.00 | 0.33 | 0.04 | 42 | 1014.5 |
| 20260506185523 | 63 | 19 | 9.0 | 14.0 | 0.00 | 0.33 | 0.04 | 41 | 1014.1 |
| 20260506185022 | 64 | 341 | 7.0 | 15.0 | 0.00 | 0.33 | 0.04 | 42 | 1014.1 |
| 20260506184524 | 63 | 342 | 7.0 | 13.0 | 0.00 | 0.33 | 0.04 | 42 | 1014.2 |
| 20260506184023 | 63 | 5 | 7.0 | 11.0 | 0.00 | 0.33 | 0.04 | 43 | 1014.3 |
| 20260506183523 | 64 | 25 | 6.0 | 11.0 | 0.00 | 0.33 | 0.04 | 43 | 1014.5 |
| 20260506183022 | 64 | 24 | 5.0 | 10.0 | 0.00 | 0.33 | 0.04 | 43 | 1014.5 |
| 20260506182524 | 63 | 245 | 6.0 | 12.0 | 0.00 | 0.33 | 0.04 | 45 | 1014.9 |
| 20260506182020 | 63 | 5 | 6.0 | 11.0 | 0.00 | 0.33 | 0.04 | 45 | 1015.4 |
| 20260506181520 | 62 | 14 | 7.0 | 11.0 | 0.00 | 0.33 | 0.04 | 45 | 1015.2 |
| 20260506181045 | 62 | 289 | 6.0 | 11.0 | 0.00 | 0.33 | 0.04 | 46 | 1015.2 |
| 20260506180523 | 63 | 230 | 5.0 | 10.0 | 0.00 | 0.33 | 0.04 | 49 | 1016.9 |
| 20260506180023 | 63 | 194 | 3.0 | 8.0 | 0.00 | 0.33 | 0.04 | 52 | 1019.1 |
| 20260506175543 | 63 | 218 | 3.0 | 8.0 | 0.00 | 0.33 | 0.04 | 51 | 1019.0 |
| 20260506175022 | 63 | 239 | 4.0 | 9.0 | 0.00 | 0.33 | 0.04 | 54 | 1021.8 |
| 20260506174523 | 63 | 280 | 6.0 | 11.0 | 0.00 | 0.33 | 0.04 | 56 | 1025.2 |
| 20260506174021 | 62 | 279 | 5.0 | 10.0 | 0.00 | 0.33 | 0.04 | 59 | 1028.7 |
| 20260506173523 | 61 | 299 | 3.0 | 9.0 | 0.00 | 0.33 | 0.04 | 60 | 1031.3 |
| 20260506173024 | 61 | 360 | 4.0 | 8.0 | 0.00 | 0.33 | 0.04 | 61 | 1031.6 |
| 20260506172524 | 59 | 241 | 6.0 | 9.0 | 0.00 | 0.33 | 0.04 | 65 | 1040.5 |
| 20260506172024 | 58 | 232 | 5.0 | 9.0 | 0.00 | 0.33 | 0.04 | 67 | 1040.8 |
| 20260506171525 | 57 | 333 | 6.0 | 10.0 | 0.00 | 0.33 | 0.04 | 68 | 1040.9 |
| 20260506171025 | 57 | 345 | 6.0 | 8.0 | 0.00 | 0.33 | 0.04 | 67 | 1039.5 |
| 20260506170524 | 56 | 352 | 6.0 | 7.0 | 0.00 | 0.33 | 0.04 | 70 | 1038.9 |
| 20260506170025 | 56 | 360 | 5.0 | 7.0 | 0.00 | 0.33 | 0.04 | 71 | 1038.1 |
| 20260506165525 | 56 | 18 | 6.0 | 7.0 | 0.00 | 0.33 | 0.04 | 71 | 1037.5 |
| 20260506165026 | 56 | 337 | 5.0 | 8.0 | 0.00 | 0.34 | 0.04 | 73 | 1034.5 |
| 20260506164525 | 55 | 16 | 5.0 | 7.0 | 0.00 | 0.34 | 0.04 | 75 | 1032.6 |
| 20260506164025 | 55 | 358 | 5.0 | 7.0 | 0.00 | 0.34 | 0.04 | 73 | 1033.5 |
| 20260506163526 | 55 | 12 | 5.0 | 8.0 | 0.00 | 0.34 | 0.04 | 76 | 1030.9 |
| 20260506163031 | 55 | 344 | 5.0 | 7.0 | 0.00 | 0.34 | 0.04 | 76 | 1031.0 |
| 20260506162534 | 54 | 216 | 1.0 | 3.0 | 0.00 | 0.34 | 0.04 | 79 | 1032.2 |
| 20260506162034 | 54 | 218 | 2.0 | 3.0 | 0.00 | 0.34 | 0.04 | 80 | 1032.8 |
| 20260506161607 | 54 | 218 | 2.0 | 4.0 | 0.00 | 0.34 | 0.04 | 81 | 1033.8 |
| 20260506161025 | 53 | 357 | 4.0 | 7.0 | 0.00 | 0.34 | 0.04 | 81 | 1033.4 |
| 20260506160525 | 53 | 12 | 5.0 | 7.0 | 0.00 | 0.34 | 0.04 | 80 | 1032.9 |
| 20260506160025 | 53 | 349 | 4.0 | 6.0 | 0.00 | 0.34 | 0.04 | 81 | 1033.5 |
| 20260506155525 | 53 | 352 | 5.0 | 6.0 | 0.00 | 0.34 | 0.04 | 80 | 1032.0 |
| 20260506155025 | 53 | 21 | 4.0 | 5.0 | 0.00 | 0.34 | 0.04 | 83 | 1037.5 |
| 20260506154520 | 52 | 33 | 3.0 | 5.0 | 0.00 | 0.34 | 0.04 | 87 | 1040.8 |
| 20260506154020 | 52 | 20 | 3.0 | 4.0 | 0.00 | 0.34 | 0.04 | 88 | 1040.8 |
| 20260506153520 | 51 | 14 | 3.0 | 4.0 | 0.00 | 0.34 | 0.04 | 89 | 1041.4 |
| 20260506153020 | 51 | 14 | 2.0 | 4.0 | 0.00 | 0.34 | 0.04 | 88 | 1041.1 |
| 20260506152520 | 51 | 296 | 2.0 | 3.0 | 0.00 | 0.34 | 0.04 | 89 | 1041.8 |
| 20260506152035 | 51 | 314 | 3.0 | 3.0 | 0.00 | 0.34 | 0.04 | 90 | 1042.2 |
| 20260506151535 | 51 | 357 | 3.0 | 3.0 | 0.00 | 0.34 | 0.04 | 90 | 1042.3 |
| 20260506151035 | 51 | 299 | 2.0 | 3.0 | 0.00 | 0.34 | 0.04 | 91 | 1041.5 |
| 20260506150536 | 51 | 291 | 2.0 | 3.0 | 0.00 | 0.34 | 0.04 | 92 | 1040.7 |
| 20260506150036 | 51 | 10 | 2.0 | 3.0 | 0.00 | 0.34 | 0.04 | 93 | 1039.8 |
| 20260506145558 | 51 | 6 | 2.0 | 3.0 | 0.00 | 0.34 | 0.04 | 92 | 1039.7 |
| 20260506145036 | 50 | 17 | 2.0 | 3.0 | 0.00 | 0.34 | 0.04 | 93 | 1041.6 |
| 20260506144520 | 50 | 203 | 2.0 | 3.0 | 0.00 | 0.34 | 0.04 | 93 | 1044.6 |
| 20260506144021 | 50 | 24 | 2.0 | 4.0 | 0.00 | 0.34 | 0.04 | 95 | 1044.3 |
| 20260506143522 | 49 | 322 | 3.0 | 3.0 | 0.00 | 0.34 | 0.04 | 94 | 1042.9 |
| 20260506143022 | 49 | 25 | 2.0 | 3.0 | 0.00 | 0.34 | 0.04 | 95 | 1041.6 |
| 20260506142521 | 49 | 5 | 3.0 | 4.0 | 0.00 | 0.34 | 0.04 | 95 | 1040.9 |
| 20260506142021 | 49 | 12 | 3.0 | 4.0 | 0.00 | 0.34 | 0.04 | 96 | 1040.6 |
| 20260506141522 | 49 | 14 | 2.0 | 3.0 | 0.00 | 0.34 | 0.04 | 96 | 1040.3 |
| 20260506141022 | 49 | 356 | 2.0 | 3.0 | 0.00 | 0.34 | 0.04 | 96 | 1040.1 |
| 20260506140521 | 49 | 13 | 2.0 | 4.0 | 0.00 | 0.34 | 0.04 | 96 | 1039.9 |
| 20260506140022 | 48 | 30 | 2.0 | 3.0 | 0.00 | 0.34 | 0.04 | 95 | 1039.9 |
| 20260506135521 | 48 | 29 | 2.0 | 3.0 | 0.00 | 0.34 | 0.04 | 95 | 1039.8 |
| 20260506135044 | 48 | 18 | 2.0 | 3.0 | 0.00 | 0.34 | 0.04 | 95 | 1039.8 |
| 20260506134542 | 48 | 35 | 2.0 | 3.0 | 0.00 | 0.34 | 0.04 | 95 | 1039.7 |
| 20260506134024 | 48 | 28 | 2.0 | 4.0 | 0.00 | 0.34 | 0.04 | 95 | 1039.7 |
| 20260506133523 | 48 | 21 | 2.0 | 3.0 | 0.00 | 0.34 | 0.04 | 95 | 1039.7 |
| 20260506133023 | 48 | 24 | 2.0 | 3.0 | 0.00 | 0.34 | 0.04 | 95 | 1039.7 |
| 20260506132522 | 47 | 10 | 2.0 | 3.0 | 0.00 | 0.34 | 0.04 | 95 | 1039.6 |
| 20260506132022 | 47 | 11 | 2.0 | 3.0 | 0.00 | 0.34 | 0.04 | 95 | 1039.6 |
| 20260506131524 | 47 | 3 | 3.0 | 3.0 | 0.00 | 0.34 | 0.04 | 95 | 1039.5 |
| 20260506131022 | 47 | 357 | 2.0 | 3.0 | 0.00 | 0.34 | 0.04 | 95 | 1039.5 |
| 20260506130543 | 47 | 241 | 1.0 | 3.0 | 0.00 | 0.35 | 0.04 | 95 | 1039.4 |
| 20260506130044 | 47 | 331 | 2.0 | 3.0 | 0.00 | 0.37 | 0.04 | 95 | 1039.3 |
| 20260506125543 | 47 | 23 | 2.0 | 3.0 | 0.00 | 0.38 | 0.04 | 95 | 1039.3 |
| 20260506125023 | 47 | 222 | 1.0 | 3.0 | 0.00 | 0.39 | 0.04 | 95 | 1039.2 |
| 20260506124522 | 47 | 337 | 2.0 | 3.0 | 0.00 | 0.39 | 0.04 | 95 | 1039.2 |
| 20260506124024 | 47 | 18 | 2.0 | 3.0 | 0.00 | 0.40 | 0.04 | 95 | 1039.3 |
| 20260506123523 | 47 | 227 | 1.0 | 3.0 | 0.00 | 0.41 | 0.04 | 95 | 1039.3 |
| 20260506123023 | 47 | 212 | 1.0 | 2.0 | 0.00 | 0.43 | 0.04 | 95 | 1039.4 |
| 20260506122524 | 46 | 215 | 1.0 | 3.0 | 0.00 | 0.43 | 0.04 | 95 | 1039.3 |
| 20260506122024 | 46 | 204 | 1.0 | 3.0 | 0.00 | 0.43 | 0.04 | 95 | 1039.3 |
| 20260506121523 | 46 | 275 | 3.0 | 4.0 | 0.00 | 0.43 | 0.04 | 95 | 1039.3 |
| 20260506121023 | 46 | 249 | 2.0 | 3.0 | 0.00 | 0.43 | 0.04 | 95 | 1039.2 |
| 20260506120523 | 46 | 296 | 3.0 | 4.0 | 0.00 | 0.43 | 0.04 | 95 | 1039.2 |
| 20260506120024 | 46 | 303 | 3.0 | 3.0 | 0.00 | 0.43 | 0.04 | 95 | 1039.2 |
| 20260506115526 | 46 | 269 | 2.0 | 3.0 | 0.00 | 0.45 | 0.04 | 95 | 1039.3 |
| 20260506115025 | 46 | 301 | 3.0 | 4.0 | 0.00 | 0.49 | 0.04 | 95 | 1039.2 |
| 20260506114544 | 46 | 242 | 3.0 | 3.0 | 0.00 | 0.49 | 0.04 | 95 | 1039.5 |
| 20260506114024 | 46 | 234 | 2.0 | 3.0 | 0.00 | 0.54 | 0.04 | 95 | 1039.5 |
| 20260506113525 | 46 | 228 | 2.0 | 3.0 | 0.00 | 0.59 | 0.04 | 95 | 1039.4 |
| 20260506113025 | 46 | 242 | 3.0 | 4.0 | 0.00 | 0.59 | 0.04 | 95 | 1039.4 |
| 20260506112545 | 46 | 222 | 2.0 | 3.0 | 0.00 | 0.59 | 0.04 | 95 | 1039.3 |
| 20260506112024 | 46 | 231 | 2.0 | 3.0 | 0.00 | 0.59 | 0.04 | 95 | 1039.1 |
| 20260506111524 | 46 | 244 | 2.0 | 3.0 | 0.00 | 0.59 | 0.04 | 95 | 1039.2 |
| 20260506111026 | 46 | 228 | 2.0 | 3.0 | 0.00 | 0.59 | 0.04 | 95 | 1039.0 |
| 20260506110524 | 46 | 226 | 2.0 | 3.0 | 0.00 | 0.59 | 0.04 | 95 | 1038.8 |
| 20260506110024 | 46 | 228 | 2.0 | 3.0 | 0.00 | 0.59 | 0.04 | 95 | 1038.7 |
| 20260506105545 | 46 | 235 | 3.0 | 3.0 | 0.00 | 0.59 | 0.04 | 95 | 1038.8 |
| 20260506105025 | 46 | 236 | 3.0 | 4.0 | 0.00 | 0.59 | 0.04 | 95 | 1038.6 |
| 20260506104525 | 46 | 243 | 3.0 | 4.0 | 0.00 | 0.59 | 0.04 | 95 | 1038.3 |
| 20260506104028 | 46 | 240 | 3.0 | 3.0 | 0.00 | 0.59 | 0.04 | 95 | 1038.3 |
| 20260506103526 | 46 | 227 | 2.0 | 3.0 | 0.00 | 0.59 | 0.04 | 95 | 1038.3 |
| 20260506103046 | 46 | 237 | 3.0 | 4.0 | 0.00 | 0.59 | 0.04 | 95 | 1038.4 |
| 20260506102525 | 46 | 241 | 3.0 | 4.0 | 0.00 | 0.59 | 0.04 | 95 | 1038.6 |
| 20260506102126 | 46 | 232 | 3.0 | 4.0 | 0.00 | 0.59 | 0.04 | 95 | 1038.6 |
| 20260506101526 | 46 | 240 | 4.0 | 4.0 | 0.00 | 0.59 | 0.04 | 95 | 1038.5 |
| 20260506101046 | 46 | 229 | 2.0 | 4.0 | 0.00 | 0.60 | 0.04 | 95 | 1038.5 |
| 20260506100526 | 46 | 241 | 4.0 | 4.0 | 0.00 | 0.60 | 0.04 | 95 | 1038.6 |
| 20260506100025 | 46 | 255 | 4.0 | 4.0 | 0.00 | 0.60 | 0.04 | 95 | 1038.5 |
| 20260506095527 | 46 | 275 | 4.0 | 4.0 | 0.00 | 0.60 | 0.04 | 95 | 1038.6 |
| 20260506095025 | 46 | 288 | 4.0 | 4.0 | 0.00 | 0.60 | 0.04 | 95 | 1038.6 |
| 20260506094527 | 46 | 280 | 4.0 | 4.0 | 0.00 | 0.68 | 0.04 | 95 | 1038.5 |
| 20260506094046 | 46 | 246 | 4.0 | 4.0 | 0.00 | 0.69 | 0.04 | 95 | 1038.7 |
| 20260506093546 | 46 | 249 | 4.0 | 4.0 | 0.00 | 0.70 | 0.04 | 95 | 1038.7 |
| 20260506093027 | 46 | 247 | 4.0 | 4.0 | 0.00 | 0.70 | 0.04 | 95 | 1038.8 |
| 20260506092548 | 46 | 237 | 4.0 | 4.0 | 0.00 | 0.70 | 0.04 | 95 | 1038.9 |
| 20260506092026 | 46 | 248 | 4.0 | 5.0 | 0.00 | 0.70 | 0.04 | 95 | 1039.0 |
| 20260506091527 | 46 | 229 | 3.0 | 5.0 | 0.00 | 0.70 | 0.04 | 95 | 1039.3 |
| 20260506091026 | 46 | 228 | 4.0 | 5.0 | 0.00 | 0.70 | 0.04 | 95 | 1039.4 |
| 20260506090527 | 46 | 222 | 2.0 | 2.0 | 0.00 | 0.70 | 0.04 | 95 | 1039.5 |
| 20260506090027 | 46 | 225 | 2.0 | 2.0 | 0.00 | 0.70 | 0.04 | 95 | 1039.7 |
| 20260506085527 | 46 | 224 | 1.0 | 2.0 | 0.00 | 0.70 | 0.04 | 95 | 1039.6 |
| 20260506085030 | 46 | 225 | 1.0 | 2.0 | 0.00 | 0.70 | 0.04 | 95 | 1039.5 |
| 20260506084547 | 46 | 224 | 1.0 | 3.0 | 0.00 | 0.70 | 0.04 | 95 | 1039.5 |
| 20260506084028 | 46 | 236 | 2.0 | 4.0 | 0.00 | 0.70 | 0.04 | 95 | 1039.4 |
| 20260506083527 | 46 | 275 | 2.0 | 4.0 | 0.00 | 0.70 | 0.04 | 95 | 1039.6 |
| 20260506083028 | 46 | 245 | 2.0 | 3.0 | 0.00 | 0.70 | 0.04 | 95 | 1039.7 |
| 20260506082528 | 46 | 281 | 1.0 | 2.0 | 0.00 | 0.70 | 0.04 | 95 | 1039.7 |
| 20260506082027 | 46 | 298 | 1.0 | 1.0 | 0.00 | 0.70 | 0.04 | 95 | 1039.8 |
| 20260506081548 | 46 | 349 | 1.0 | 3.0 | 0.00 | 0.70 | 0.04 | 95 | 1039.9 |
| 20260506081028 | 46 | 13 | 2.0 | 4.0 | 0.00 | 0.71 | 0.04 | 95 | 1040.0 |
| 20260506080528 | 46 | 13 | 2.0 | 4.0 | 0.00 | 0.71 | 0.04 | 95 | 1040.1 |
| 20260506073029 | 46 | 85 | 1.0 | 3.0 | 0.01 | 0.71 | 0.04 | 95 | 1040.4 |
| 20260506072529 | 46 | 321 | 1.0 | 2.0 | 0.02 | 0.71 | 0.04 | 95 | 1040.7 |
| 20260506072029 | 46 | 187 | 1.0 | 1.0 | 0.02 | 0.71 | 0.04 | 95 | 1041.0 |
| 20260506071529 | 46 | 133 | 1.0 | 2.0 | 0.02 | 0.71 | 0.04 | 95 | 1041.2 |
| 20260506071048 | 46 | 124 | 1.0 | 3.0 | 0.02 | 0.71 | 0.04 | 95 | 1041.5 |
| 20260506070529 | 46 | 161 | 1.0 | 1.0 | 0.02 | 0.71 | 0.04 | 95 | 1041.7 |